Location: Unspecified
(0.0000°N, 0.0000°E)
Time: 18:31:53
(UTC+00:00)

Vanguard 3 - Pass Details

Date: 30 September 2023
Orbit: 507 x 3241 km, 33.3° (Epoch: 29 November)

Event Time Altitude Azimuth Distance (km) Brightness Sun altitude
Rises 17:17:14 0° 269° (W) 7,071 14.5 8.2°
Reaches altitude 10° 17:24:12 10° 282° (WNW) 5,755 13.4 6.4°
Maximum altitude 17:35:26 21° 325° (NW) 4,097 11.2 3.6°
Drops below altitude 10° 17:43:47 10° 10° (N) 4,132 10.6 1.6°
Sets 17:47:43 0° 26° (NNE) 4,673 10.7 0.6°
